Вернуться в каталог

OPS 4682 DEB

АктивенPO
NORAD 38361·DEBRIS·🇺🇸 United States

Запущен Apr 3, 1965 с Vandenberg Space Force Base

Loading…

Ближайшие Пролёты (ближайшие 24 часа)

TLE

СвежийSource: Space-Track

Эпоха: Sep 14, 2026, 13:54 UTC

1 38361U 65027BN  26257.57920773 -.00000507  00000-0 -16955-2 0  9995
2 38361  90.2491  13.6779 0031664  26.4089 333.8639 13.00409227597565

Отслеживайте OPS 4682 DEB в реальном времени с AllMySat

Download on the App Store